Hourly Data Report for October 26, 2013

All times are specified in Local Standard Time (LST). Add 1 hour to adjust for Daylight Saving Time where and when it is observed.

ARVIAT A
NUNAVUT

61°05'38.000" N
94°04'18.000" W
10.40 m
2300427
71174
YEK

Download Data

Hourly Data (October 2013)
Hourly Data Report for October 26, 2013
Temp Definition
°C
Dew Point Temp Definition
°C
Rel Hum Definition
%
Wind Dir Definition
10's deg

Wind Spd Definition
km/h
Visibility Definition
km
Stn Press Definition
kPa
Hmdx Definition


Wind Chill Definition


Weather Definition


TIME
00:00 Legend Double Dagger -4.3 -5.3 93 29 13 16.1 101.28   -9 LegendNANA
01:00 Legend Double Dagger -4.0 -5.0 93 29 21 16.1 101.24   -10 LegendNANA
02:00 Legend Double Dagger -4.6 -5.0 97 29 18 4.0 101.20   -11 LegendNANA
03:00 Legend Double Dagger -4.8 -5.2 97 31 17 16.1 101.17   -11 LegendNANA
04:00 Legend Double Dagger -5.5 -6.0 96 31 17 11.3 101.12   -12 LegendNANA
05:00 Legend Double Dagger -6.0 -6.5 96 27 11 16.1 101.07   -11 LegendNANA
06:00 Legend Double Dagger -6.4 -7.8 90 28 13 16.1 101.00   -12 LegendNANA
07:00 Legend Double Dagger -7.0 -7.7 95 28 11 16.1 100.90   -12 LegendNANA
08:00 Legend Double Dagger -5.9 -6.3 97 29 9 3.2 100.82   -10 LegendNANA
09:00 Legend Double Dagger -6.0 -6.4 97 2 5 1.6 100.74   -8 LegendNANA
10:00 Legend Double Dagger -5.8 -6.5 95 4 15 2.8 100.66   -12 LegendNANA
11:00 Legend Double Dagger -6.9 -8.0 92 36 24 3.2 100.67   -15 LegendNANA
12:00 Legend Double Dagger -8.6 -9.5 93 36 32 16.1 100.72   -18 LegendNANA
13:00 Legend Double Dagger -10.0 -11.3 90 34 24 16.1 100.75   -19 LegendNANA
14:00 Legend Double Dagger -10.0 -11.3 90 34 28 16.1 100.76   -19 LegendNANA
15:00 Legend Double Dagger -9.6 -10.8 91 34 28 8.1 100.80   -19 LegendNANA
16:00 Legend Double Dagger -9.1 -10.0 93 34 32 12.9 100.84   -19 LegendNANA
17:00 Legend Double Dagger -7.8 -8.6 94 35 35 3.2 100.90   -17 LegendNANA
18:00 Legend Double Dagger -8.5 -9.3 94 35 37 6.4 100.98   -18 LegendNANA
19:00 Legend Double Dagger -8.4 -9.2 94 35 33 16.1 101.07   -18 LegendNANA
20:00 Legend Double Dagger -7.2 -8.2 93 35 42 12.9 101.13   -17 LegendNANA
21:00 Legend Double Dagger -7.4 -9.1 88 36 41 11.3 101.21   -17 LegendNANA
22:00 Legend Double Dagger -8.2 -9.9 88 35 41 8.1 101.26   -18 LegendNANA
23:00 Legend Double Dagger -9.1 -10.5 90 34 37 12.9 101.29   -19 LegendNANA

Notes on Data Quality.

Legend

  • E = Estimated
  • M = Missing
  • NA = Not Available
  • ‡ = Partner data that is not subject to review by the National Climate Archives
Date modified: